Vancouver, WA
on Sunday, December 16, 2012

Sunday
Previous Day Next Day
Daily Summary
 ActualAverageRecord
Temperature
Mean Temperature °F 40°F  
Max Temperature 51°F 46°F 57°F (2001)
Min Temperature 38°F 34°F 11°F (1922)
Degree Days
Heating Degree Days 20    
Month to date heating degree days 319  
Since 1 July heating degree days 1141  
Cooling Degree Days 0    
Month to date cooling degree days 0  
Year to date cooling degree days 398  
Moisture
Dew Point 40°F   
Average Humidity 80    
Maximum Humidity 89    
Minimum Humidity 71    
Precipitation
Precipitation 0.74 in 0.23 in 1.35 in (1950)
Month to date precipitation 4.25 3.33  
Year to date precipitation 42.57 35.70  
Snow
Snow 0.00 in in in ()
Month to date snowfall 0.0  
Snow Depth 0.00 in   
Wind
Wind Speed 8 mph   
Max Wind Speed 21 mph   
Max Gust Speed 36 mph   
Visibility 9 miles   
Events Rain   

Key: T is trace of precipitation, MM is missing value
Source: NWS Daily Summary
Time(PST)TemperatureDew PointHumidity Pressure Visibility Wind DirectionWind SpeedGust SpeedPrecipitationEvents Conditions
12:53 AM 41.0°F 36.0°F 82% 29.83 in 10.0 miles South 4.6 mph - N/A   Overcast
1:53 AM 39.9°F 36.0°F 86% 29.84 in 10.0 miles Calm Calm - N/A   Overcast
2:53 AM 41.0°F 35.1°F 79% 29.84 in 10.0 miles South 3.5 mph - 0.00 in   Overcast
3:53 AM 41.0°F 36.0°F 82% 29.84 in 10.0 miles Calm Calm - 0.00 in   Overcast
5:30 AM 42.8°F 37.4°F 81% 29.83 in 10.0 miles South 6.9 mph - 0.00 in Rain Light Rain
5:39 AM 42.8°F 37.4°F 81% 29.82 in 10.0 miles Calm Calm - 0.00 in Rain Light Rain
5:53 AM 42.1°F 37.0°F 82% 29.83 in 10.0 miles Variable 3.5 mph - 0.01 in Rain Light Rain
6:53 AM 42.1°F 37.0°F 82% 29.82 in 10.0 miles South 8.1 mph - 0.01 in Rain Light Rain
7:53 AM 42.1°F 37.9°F 85% 29.81 in 10.0 miles SSW 5.8 mph - 0.01 in Rain Light Rain
8:10 AM 42.8°F 37.4°F 81% 29.81 in 10.0 miles Calm Calm - 0.00 in   Overcast
9:53 AM 43.0°F 37.9°F 82% 29.78 in 10.0 miles SSE 4.6 mph - 0.01 in Rain Light Rain
10:53 AM 43.0°F 37.9°F 82% 29.75 in 10.0 miles SSE 5.8 mph - 0.02 in Rain Light Rain
11:27 AM 42.8°F 37.4°F 81% 29.71 in 10.0 miles South 8.1 mph 16.1 mph 0.01 in Rain Light Rain
11:53 AM 43.0°F 39.0°F 86% 29.70 in 10.0 miles SSE 8.1 mph - 0.01 in Rain Light Rain
12:53 PM 43.0°F 39.0°F 86% 29.63 in 9.0 miles SE 6.9 mph - 0.01 in Rain Light Rain
1:53 PM 43.0°F 39.0°F 86% 29.54 in 7.0 miles East 11.5 mph - 0.05 in Rain Light Rain
2:05 PM 42.8°F 39.2°F 87% 29.51 in 9.0 miles East 10.4 mph - 0.01 in Rain Light Rain
2:53 PM 43.0°F 39.0°F 86% 29.44 in 6.0 miles ESE 16.1 mph 21.9 mph 0.05 in Rain Light Rain
3:53 PM 42.1°F 37.9°F 85% 29.37 in 10.0 miles ESE 12.7 mph - 0.04 in Rain Light Rain
4:53 PM 42.1°F 39.0°F 89% 29.30 in 8.0 miles ESE 12.7 mph - 0.02 in Rain Light Rain
5:53 PM 42.1°F 39.0°F 89% 29.24 in 6.0 miles SE 12.7 mph 19.6 mph 0.12 in Rain Rain
6:53 PM 48.9°F 45.0°F 86% 29.16 in 5.0 miles South 12.7 mph 21.9 mph 0.13 in Rain Light Rain
7:16 PM 50.0°F 46.4°F 87% 29.16 in 5.0 miles South 12.7 mph 29.9 mph 0.06 in Rain Rain
7:26 PM 50.0°F 46.4°F 87% 29.18 in 5.0 miles SSW 12.7 mph 23.0 mph 0.10 in Rain Rain
7:53 PM 50.0°F 45.0°F 83% 29.19 in 10.0 miles SW 12.7 mph 21.9 mph 0.13 in Rain Light Rain
8:53 PM 50.0°F 44.1°F 80% 29.19 in 10.0 miles South 5.8 mph - 0.00 in   Mostly Cloudy
9:53 PM 51.1°F 42.1°F 71% 29.16 in 10.0 miles SSW 9.2 mph 20.7 mph 0.01 in   Scattered Clouds
10:35 PM 48.2°F 44.6°F 87% 29.16 in 7.0 miles SSW 12.7 mph 20.7 mph 0.06 in Rain Light Rain
10:53 PM 50.0°F 43.0°F 77% 29.16 in 10.0 miles SSW 15.0 mph 29.9 mph 0.07 in Rain Light Rain
11:53 PM 48.9°F 43.0°F 80% 29.18 in 10.0 miles SSW 12.7 mph 21.9 mph 0.03 in Rain Light Rain
Moon Phase
Dec. 16 Dec. 20 Dec. 28 Jan. 04 Jan. 11
Sunrise:07:45 AM (PST) Moon Rise:10:13 AM (PST)12/16
Sunset:04:27 PM (PST) Moon Set:08:58 PM (PST)12/16

Copyright © 2014 The Weather Underground, Inc.